FW5955 Weather Reports


Display with metric or nautical units.
time (UTC)temp
F
wind
direction
speed
MPH
gust
MPH
rain 1hr
in
rain 24hr
in
rain mn
in
humidity
%
barometer
mb
20260504234603 43 250 7.0 17.0 0.00 0.13 0.07 88 1006.9
20260504233050 43 271 9.0 17.0 0.00 0.13 0.07 88 1006.8
20260504231541 43 247 6.0 13.0 0.00 0.13 0.07 88 1006.6
20260504230041 42 266 5.0 14.0 0.00 0.13 0.07 89 1006.4
20260504224548 43 243 8.0 20.0 0.00 0.25 0.07 88 1006.3
20260504223044 43 246 9.0 18.0 0.00 0.25 0.07 87 1006.4
20260504221538 44 270 9.0 19.0 0.00 0.25 0.07 85 1006.5
20260504220037 44 337 8.0 18.0 0.00 0.25 0.07 85 1006.2
20260504214534 44 248 9.0 24.0 0.00 0.30 0.07 84 1005.9
20260504213053 45 240 10.0 19.0 0.00 0.30 0.07 82 1005.7
20260504211532 46 246 9.0 18.0 0.00 0.30 0.07 79 1005.5
20260504210031 47 246 9.0 18.0 0.00 0.30 0.07 75 1005.4
20260504204531 48 269 9.0 19.0 0.00 0.35 0.07 74 1005.5
20260504203034 49 288 11.0 22.0 0.00 0.35 0.07 72 1005.3
20260504201508 49 255 9.0 21.0 0.00 0.35 0.07 72 1005.2
20260504200004 49 252 11.0 23.0 0.00 0.35 0.07 72 1005.1
20260504194504 50 243 14.0 24.0 0.00 0.43 0.07 70 1005.0
20260504193003 50 264 10.0 21.0 0.00 0.43 0.07 69 1004.8
20260504191502 50 269 12.0 22.0 0.00 0.43 0.07 63 1004.9
20260504190119 51 234 9.0 18.0 0.00 0.43 0.07 62 1004.6
20260504184608 51 282 10.0 21.0 0.00 0.50 0.07 62 1004.4
20260504183057 53 228 13.0 22.0 0.00 0.50 0.07 56 1004.3
20260504181558 56 219 10.0 18.0 0.00 0.50 0.07 52 1004.2
20260504180055 60 248 7.0 21.0 0.00 0.50 0.07 38 1004.3
20260504174602 59 30 9.0 23.0 0.00 0.63 0.07 37 1004.3
20260504173056 59 303 8.0 23.0 0.00 0.63 0.07 38 1004.3
20260504171551 58 224 10.0 20.0 0.00 0.63 0.07 39 1004.2
20260504081510 39 243 3.0 11.0 0.00 0.75 0.07 93 996.6
20260504044554 36 268 5.0 20.0 0.02 0.73 0.06 94 991.6
20260504043039 37 259 5.0 20.0 0.02 0.72 0.05 94 991.1
20260504041533 37 347 6.0 16.0 0.03 0.72 0.05 94 990.8
20260504040033 36 226 6.0 17.0 0.03 0.72 0.04 94 990.5
20260504034538 36 304 5.0 20.0 0.03 0.71 0.03 94 989.9
20260504033036 36 302 5.0 19.0 0.03 0.70 0.02 94 989.5
20260504031523 36 254 7.0 19.0 0.02 0.69 0.02 94 989.1
20260504030018 36 278 5.0 15.0 0.01 0.68 0.00 94 988.6
20260504024521 36 294 4.0 18.0 0.01 0.68 0.68 94 988.1
20260504023013 36 251 4.0 14.0 0.01 0.67 0.67 94 987.7
20260504021513 38 352 5.0 11.0 0.01 0.67 0.67 93 987.1
20260504020015 38 218 3.0 12.0 0.02 0.67 0.67 94 986.4
20260504014515 38 338 3.0 13.0 0.02 0.67 0.67 94 985.7
20260504013011 38 264 5.0 13.0 0.01 0.66 0.66 94 984.7
20260504011512 37 63 3.0 17.0 0.01 0.65 0.65 94 983.7
20260504010010 37 119 4.0 18.0 0.01 0.65 0.65 94 982.9
20260504004511 37 319 5.0 17.0 0.01 0.65 0.65 94 983.0
20260504003008 38 203 5.0 15.0 0.02 0.65 0.65 94 982.3
20260504001505 39 320 3.0 15.0 0.02 0.65 0.65 95 981.4
20260504000004 40 182 3.0 14.0 0.02 0.65 0.65 95 980.0